Regional Weather Roundup
Issued by NWS

Home | Current Version | Previous Version | Text Only | Print | Product List | Glossary Off
Versions: 1 2 3 4 5 6 7 8 9 10 11 12 13 14 15 16 17 18 19 20 21 22 23 24 25 26 27 28 29 30 31 32 33 34 35 36 37 38 39 40 41 42 43 44 45 46 47 48 49 50

180
ASUS43 KBIS 182210
RWRND

NORTH DAKOTA REGIONAL WEATHER ROUNDUP
NATIONAL WEATHER SERVICE BISMARCK ND
400 PM CST SAT NOV 18 2017

NOTE: "FAIR" INDICATES FEW OR NO CLOUDS BELOW 12,000 FEET WITH NO
SIGNIFICANT WEATHER AND/OR OBSTRUCTIONS TO VISIBILITY.


NDZ001>003-009>011-017-182300-
NORTHWEST NORTH DAKOTA

CITY           SKY/WX    TMP DP  RH WIND       PRES   REMARKS
WILLISTON      CLOUDY    29  14  53 SW8       30.06S
MINOT          CLOUDY    27  12  53 W17G24    30.04S WCI  14
MINOT AFB      CLOUDY    24  12  58 W13       30.03R WCI  13
$$

NDZ018>021-031>035-040>046-182300-
SOUTHWEST NORTH DAKOTA

CITY           SKY/WX    TMP DP  RH WIND       PRES   REMARKS
BISMARCK       CLEAR     35  17  47 W12       30.11R
DICKINSON      CLOUDY    33  18  53 W10       30.04S
GARRISON         N/A     27  15  61 NW13      30.05F WCI  16
HETTINGER ARPT CLEAR     35  19  52 W18       30.09R
$$

NDZ004>008-012>016-024-026-027-054-182300-
NORTHEAST NORTH DAKOTA

CITY           SKY/WX    TMP DP  RH WIND       PRES   REMARKS
GRAND FORKS    CLEAR     20  12  71 W9        30.04R WCI   9
GRND FRKS AFB  CLEAR     19   8  63 W13       30.04R WCI   6
DEVILS LAKE    CLEAR     17   8  67 W17       30.04R WCI   1
$$

NDZ022-023-025-028>030-036>039-047>053-182300-
SOUTHEAST NORTH DAKOTA

CITY           SKY/WX    TMP DP  RH WIND       PRES   REMARKS
FARGO          CLEAR     23   7  50 NW14G28   30.05R WCI  11
JAMESTOWN      CLEAR     23  11  60 NW22G29   30.05R WCI   8
$$





USA.gov is the U.S. government's official web portal to all federal, state and local government web resources and services.